Showing default

PORCUPINE 2, 1577

Orbit data source: Space-Track

PORCUPINE 2, 1577 is a payload satellite owned by NRL (US) in LEO that was launched on Fri, 13 Aug 1965 UTC via a THOR ABLESTAR launch vehicle from the Air Force Western Test Range (AFWTR). Payload-class satellites include a variety of spacecraft equipped with specific instruments for various scientific and technological missions. These include communications satellites like Starlink; space stations such as the ISS; scientific satellites like the Hubble; Earth observation satellites from companies like Planet Labs, Umbra, and HawkEye 360; GPS; miniature CubeSats for education and research; and military/defense satellites.

Loading next visibility...
Identifier
1577, 1965-065J
Orbit
LEO
Country
Flag of USUS
Related business
Manufacturer
NRL
Mission
Spacecraft
Bus & Motor
SURCAL, Unknown motor
Mass
5 kg wet, 5 kg dry
Launch date (UTC)
1965-08-13 (61 years ago)
Launch vehicle
THOR ABLESTAR
Launch site
Air Force Western Test Range (AFWTR)
Object type
Payload
Rocket body
Debris
Shape & HBR
Unknown
Radar Cross Section
Medium (>0.1 m² and <1 m²)

Expand to show TLE details & history
Last TLE update: 1 day ago

TLE from 1 day ago
0 PORCUPINE 2
1 01577U 65065J   26173.58706125  .00000031  00000-0  40648-4 0  9995
2 01577  90.0294 212.1152 0072148  88.6979  63.3874 13.36256322963371
Epoch: 2026-06-22T14:05Z
TLE epoch observation values (Epoch: 2026-06-22T14:05:22.091Z)
Latitude
27.20835°
Longitude
-89.98265°
Altitude
1,102.688 km
Speed
7.315 km/s
True Right ascension
02h 08m 31s
True Declination
27° 04' 31"
Sunlit
Object was in daylight at epoch
Visualization orbit readout
Latitude
Unknown
Longitude
Unknown
Altitude
Unknown
Speed
Unknown
Apparent Right ascension
Unknown
Apparent Declination
Unknown
Sunlit
N/A
Visualization observer readout
Local Sidereal Time
13:04:58
Azimuth
Unknown
Elevation
Unknown
Doppler factor
Unknown
Orbital elements
Apogee altitude
1,174.427 km
Perigee altitude
1,066.227 km
Semi-major axis
7,498.464 km
Eccentricity
0.00721
Inclination
90.0294°
RAAN
212.1152°
Arg. of periapsis
88.6979°
True anomaly
64.12954°
Mean anomaly
63.3874°
Eccentric anomaly
63.75817°
Mean motion
3.3426 °/min
Orbital period
107.7 mins
BSTAR
0.000040648
Loading maneuver chart data...
Computing Atmospheric mass density...

Documentation

Showing up to 5 results
|